Погода в Усть-Невинском

Россия / Ставропольский край     44°32′12″N   41°57′00″E
темп.,
°C
ветер,
м/с
пор.,
м/с
влажн.,
%
обл.,
%
осадки,
мм/ч
давл.,
гПа
погр.,
м
20 мая, пт
пт2000:00+7юз2493100 0.1 1019193
03:00+6зюз229491 0.1 101847
06:00+7з8178365 0.0 1019756
09:00+10з101572100 0.0 10191635
12:00+13зсз101266100 0.7 10191573
15:00+13зсз81065100 1.8 10191604
18:00+10з7148481 2.7 1020854
21:00+8зюз515885 2.8 1021501
21 мая, сб
сб2100:00+8зюз5158163 0.0 1021416
03:00+8юз4127346 0.0 1020322
06:00+8ююз397498 0.0 1020207
09:00+13з41064100 0.0 1019733
12:00+17зсз595525 0.1 10171159
15:00+19зсз71054100 0.1 10161653
18:00+17зсз497075 0.0 1015523
21:00+12юз2285100 0.0 101412
22 мая, вс
вс2200:00+10юз228489 0.0 101212
03:00+9ююз22805 0.0 101111
06:00+10ююз226898 0.0 101039
09:00+18зюз2450100 0.0 1007400
12:00+21сз56500 0.0 10061016
15:00+20сз665323 0.0 10051413
18:00+17сз24705 0.1 1005321
21:00+12юз01760 0.1 100510
23 мая, пн
пн2300:00+10з118798 0.0 100510
03:00+11юз128698 0.0 100546
06:00+12ю248397 0.0 1005162
09:00+15сз5565100 0.0 10051018
12:00+15сз3568100 0.0 1005895
15:00+14зсз4578100 0.5 1004644
18:00+13з1287100 2.4 100445
21:00+11зсз2489100 3.4 1006109
24 мая, вт
вт2400:00+10з3689100 0.8 1007210
03:00+9з3794100 0.9 1009311
06:00+9зюз3894100 0.0 1010457
09:00+12зсз6776100 0.0 1010999
12:00+13ссз557792 0.8 1011961
15:00+14сз347191 2.7 1011924
18:00+13зюз3483100 2.6 1013374
21:00+10зюз3695100 7.3 1016240